126  
NZUS99 KIND 141809  
HRRIND  
 
WEATHER ROUNDUP FOR INDIANA AND SURROUNDING STATES  
NATIONAL WEATHER SERVICE INDIANAPOLIS IN  
200 PM EDT TUE AUG 14 2018  
   
..INDIANA
 
 
 
CITY SKY/WX TMP DP RH WIND PRES REMARKS  
INDIANAPOLIS FAIR 84 62 47 SW9 30.03F  
6HR MIN TEMP: 68; 6HR MAX TEMP: 85;  
 
EAGLE CREEK FAIR 84 65 52 VRB3 30.03F  
6HR MIN TEMP: 69; 6HR MAX TEMP: 85;  
 
ZIONSVILLE FAIR 81 65 59 W8 30.05F  
6HR MIN TEMP: 62; 6HR MAX TEMP: 81;  
 
MOUNT COMFORT FAIR 84 70 61 CALM 30.04F  
GREENWOOD FAIR 82 66 58 CALM 30.05S  
SHELBYVILLE FAIR 83 66 56 VRB3 30.03F  
6HR MIN TEMP: 66; 6HR MAX TEMP: 84;  
 

 
 
CITY SKY/WX TMP DP RH WIND PRES REMARKS  
LAFAYETTE FAIR 84 63 49 SW7 30.02F  
6HR MIN TEMP: 63; 6HR MAX TEMP: 85;  
 
KOKOMO FAIR 84 69 60 W8 30.04F  
6HR MIN TEMP: 66; 6HR MAX TEMP: 84;  
 
FRANKFORT CLOUDY 86 65 49 W5 30.06S  
6HR MIN TEMP: 64; 6HR MAX TEMP: 86;  
 
CRAWFORDSVILLE FAIR 81 67 63 SW5 30.04F  
6HR MIN TEMP: 61; 6HR MAX TEMP: 81;  
 
MUNCIE FAIR 82 66 58 W7 30.04S  
6HR MIN TEMP: 70; 6HR MAX TEMP: 84;  
 
GREENCASTLE FAIR 82 63 51 CALM 30.05S  
TERRE HAUTE FAIR 85 64 49 S8 30.03F  
6HR MIN TEMP: 65; 6HR MAX TEMP: 86;  
 
BLOOMINGTON FAIR 84 67 56 CALM 30.04F  
6HR MIN TEMP: 63; 6HR MAX TEMP: 86;  
 
COLUMBUS MOSUNNY 82 63 51 CALM 30.04F  
BEDFORD FAIR 86 59 39 CALM 30.02F  
SEYMOUR FAIR 88 63 42 CALM 30.03  
NORTH VERNON FAIR 82 66 57 CALM 30.04F  

 
 
CITY SKY/WX TMP DP RH WIND PRES REMARKS  
GARY MOSUNNY 86 57 37 SW6 30.00F  
VALPARAISO FAIR 87 60 40 SW6 30.01F  
6HR MIN TEMP: 68; 6HR MAX TEMP: 87;  
 
LA PORTE FAIR 83 66 56 CALM 30.02S  
6HR MIN TEMP: 64; 6HR MAX TEMP: 83;  
 
MICHIGAN CITY FAIR 82 63 51 W5 30.01F  
SOUTH BEND FAIR 82 67 60 VRB7 30.01F  
6HR MIN TEMP: 65; 6HR MAX TEMP: 83;  
 
ELKHART FAIR 82 68 61 W6 30.01F  
GOSHEN FAIR 83 70 64 W9 30.01F  
6HR MIN TEMP: 63; 6HR MAX TEMP: 83;  
 
ANGOLA FAIR 82 68 61 SW8 30.01F  
KENDALLVILLE FAIR 83 62 50 SW6 30.03S  
AUBURN FAIR N/A N/A N/A SW6 30.03S  
RENSSELAER FAIR 82 59 44 W6 30.02F  
KNOX FAIR 82 63 51 CALM 30.01F  
ROCHESTER FAIR 86 64 48 W7 30.03S  
WARSAW FAIR 82 68 61 W8 30.02F  
FORT WAYNE FAIR 81 66 60 W12 30.03F  
6HR MIN TEMP: 65; 6HR MAX TEMP: 82;  
 
MONTICELLO FAIR 83 64 52 SW8 30.02S  
6HR MIN TEMP: 63; 6HR MAX TEMP: 84;  
 
LOGANSPORT FAIR 82 64 54 W5 30.03F  
PERU/GRISSOM FAIR 83 68 58 W7 30.02F  
6HR MIN TEMP: 66; 6HR MAX TEMP: 83;  
 
HUNTINGTON PTSUNNY N/A N/A N/A W6 30.02F  
MARION FAIR 81 21 11 CALM 30.04S HAZE  
RICHMOND FAIR 79 66 65 W7 30.07S  
BATESVILLE N/A N/A N/A N/A MISG N/A  
WASHINGTON FAIR 86 59 39 SW3 30.02F  
6HR MIN TEMP: 63; 6HR MAX TEMP: 87;  
 
FRENCH LICK FAIR 84 45 24 CALM 30.04F  
MADISON FAIR 86 63 45 NW3 30.06F  
HUNTINGBURG FAIR 86 66 51 W7 30.03F  
6HR MIN TEMP: 64; 6HR MAX TEMP: 86;  
 
EVANSVILLE FAIR 88 61 40 SW7 30.03S  
6HR MIN TEMP: 68; 6HR MAX TEMP: 89;  
 

 
   
..ILLINOIS
 
 
 
CITY SKY/WX TMP DP RH WIND PRES REMARKS  
CHICAGO FAIR 85 63 47 SW7 29.99S  
MOLINE FAIR 85 68 56 S7 29.97F  
ROCKFORD PTSUNNY 83 66 56 SW7 30.01S  
KANKAKEE FAIR 86 60 41 W3 30.02S  
PEORIA FAIR 84 70 62 SW8G18 29.99F  
BLOOMINGTON FAIR 85 67 54 SE10 30.03S  
CHAMPAIGN FAIR 85 68 56 VRB6 30.03S  
RANTOUL FAIR 85 66 52 CALM 30.02F  
DANVILLE FAIR 83 67 58 S8 30.01S  
QUINCY CLOUDY 84 68 58 S10 29.97F  
SPRINGFIELD FAIR 85 71 63 S9 30.00S HX 90  
DECATUR FAIR 84 69 60 S8 30.01F  
MATTOON FAIR 82 66 58 S6 30.02F  
PARIS FAIR 85 66 53 S7 30.04S  
EFFINGHAM FAIR 85 69 58 SE6 30.03F  
ROBINSON FAIR 85 69 58 W6 30.03F  
OLNEY FAIR 86 59 39 S6 30.02F  
LAWRENCEVILLE FAIR 87 64 46 VRB3 30.02F  
MOUNT VERNON FAIR 89 67 47 SW13 30.02S HX 92  
FAIRFIELD FAIR 85 65 49 S5 30.01F  
MOUNT CARMEL FAIR 85 65 51 S3 30.02S  
CARMI FAIR 88 68 51 S6 30.01F HX 91  

 
   
..KENTUCKY
 
 
 
CITY SKY/WX TMP DP RH WIND PRES REMARKS  
LOUISVILLE FAIR 88 64 44 S5 30.02F  
PADUCAH FAIR 84 66 54 SW6 30.02F  
OWENSBORO FAIR 87 66 49 VRB3 30.03F  
FORT KNOX FAIR 86 64 47 SW6 30.05S  
LEXINGTON FAIR 84 63 49 W5 30.06F  
BOWLING GREEN FAIR 89 64 43 CALM 30.03F HX 90  
JACKSON FAIR 84 65 52 VRB3 30.07F  

 
   
..OHIO
 
 
 
CITY SKY/WX TMP DP RH WIND PRES REMARKS  
CINCINNATI FAIR 84 65 52 N7 30.05F  
DAYTON PTSUNNY 82 66 58 W10 30.05F  
TOLEDO FAIR 86 63 45 W10 29.99F  
DEFIANCE FAIR 83 66 56 NW6 30.01S  
FINDLAY FAIR 85 66 53 W12 30.00F  
LIMA FAIR 80 67 64 W8 30.03S  
WRIGHT-PAT AFB FAIR 82 68 62 SW6 30.04F  
COLUMBUS FAIR 83 63 50 W13 30.02F  
CLEVELAND PTSUNNY 84 64 50 W8 30.01S  

 
   
..MICHIGAN
 
 
 
CITY SKY/WX TMP DP RH WIND PRES REMARKS  
DETROIT FAIR 86 60 41 SW12 29.98S  
GRAND RAPIDS FAIR 87 65 47 VRB7 29.97F  
LANSING FAIR 85 65 51 W9 29.99S  
KALAMAZOO PTSUNNY 83 68 60 NW6 30.00S  
BATTLE CREEK PTSUNNY 83 68 60 NW6 30.01S  
MARSHALL PTSUNNY 83 65 54 SW5 29.99F  
JACKSON FAIR 83 63 50 W7 30.00F  
BENTON HARBOR FAIR 84 68 58 W10 30.01S  
STURGIS FAIR 84 67 55 CALM 30.01S  
COLDWATER FAIR 84 63 49 NW5 30.01S  
HILLSDALE FAIR 82 61 47 CALM 30.01F  

 
   
..OTHER LOCATIONS
 
 
 
CITY SKY/WX TMP DP RH WIND PRES REMARKS  
SAINT LOUIS MO CLOUDY 83 69 62 SW13G22 29.99S  
CAPE GIRARDEAU CLOUDY 80 72 76 SW9 30.03R  
MILWAUKEE WI FAIR 87 62 43 W10 29.98S  
NASHVILLE TN PTSUNNY 89 58 34 W5 30.05F  

 
 
 
 
CLICK HERE TO GO TO PREVIOUS BULLETINS.

The Nexlab IN Page Main Text Page